Home > Time Zones > World Clock > Weather > Iran > Ahvaz > Past weeks

Flag for Iran Weather past 2 weeks in Ahvaz, Iran

Now
55 °F

Clear.


Feels Like: 55 °F
Forecast: 54 / 72 °F
Wind: No wind

Location: Ahwaz

Current Time: Dec 29, 2014 at 6:44:18 AM

Latest Report: Dec 29, 2014 at 6:30 AM


Visibility: 4 mi

Pressure: 30.04 "Hg

Humidity: 94%

Dew point: 54 °F

Location of AhvazLocation

Historic Weather in Ahvaz — Graph

°F

Ahvaz temperature yesterday

Maximum temperature yesterday: 73 °F (at 3:30 PM)
Minimum temperature yesterday: 50 °F (at 4:30 AM)
Average temperature yesterday: 61 °F

Past Weeks' High & Low Weather Summary

 TemperatureHumidityPressure
High79 °F (Dec 14, 3:00 PM)100% (Dec 18, 12:30 AM)30.30 "Hg (Dec 18, 12:30 AM)
Low45 °F (Dec 26, 2:30 AM)33% (Dec 28, 2:30 PM)29.92 "Hg (Dec 21, 1:30 PM)
Average59 °F73%30.12 "Hg
* Reported Dec 14 5:30 AM — Dec 29 5:30 AM, Ahvaz, Weather by CustomWeather, © 2014

Note: Actual official high and low records may vary slightly from our data, if they occured in-between our weather recording intervals... More about our weather records

Advertising

Ahvaz weather history for previous 24 hours

 ConditionsComfort  
Time TempWeatherWind HumidityBarometerVisibility
5:30 AM
Dec 29
57 °FPassing clouds.2 mph88%30.04 "Hg4 mi
4:30 AM57 °FPassing clouds.No wind88%30.04 "Hg4 mi
3:30 AM59 °FPassing clouds.No wind82%30.04 "Hg5 mi
2:30 AM59 °FPassing clouds.5 mph82%30.07 "Hg5 mi
1:30 AM59 °FPassing clouds.7 mph82%30.07 "Hg5 mi
12:30 AM59 °FPassing clouds.5 mph82%30.07 "Hg5 mi
12:00 AM59 °FSprinkles. Passing clouds.7 mph77%30.09 "Hg3 mi
11:30 PM
Dec 28
59 °FPassing clouds.9 mph77%30.09 "Hg5 mi
11:00 PM59 °FThunderstorms. Mostly cloudy.12 mph68%30.07 "Hg2 mi
10:30 PM61 °FThunderstorms. Passing clouds.5 mph63%30.07 "Hg5 mi
9:30 PM61 °FPassing clouds.No wind59%30.04 "HgN/A
8:30 PM63 °FClear.2 mph56%30.04 "Hg10 mi
7:30 PM64 °FPassing clouds.No wind52%30.04 "HgN/A
6:30 PM64 °FPassing clouds.2 mph64%30.04 "HgN/A
5:30 PM68 °FScattered clouds.No wind49%30.04 "HgN/A
4:30 PM73 °FScattered clouds.5 mph33%30.04 "HgN/A
3:30 PM73 °FScattered clouds.2 mph33%30.04 "HgN/A
2:30 PM72 °FScattered clouds.7 mph33%30.04 "HgN/A
2:00 PM72 °FScattered clouds.5 mph47%30.07 "HgN/A
1:30 PM72 °FScattered clouds.2 mph44%30.07 "HgN/A
12:30 PM68 °FBroken clouds.No wind49%30.09 "HgN/A
12:00 PM66 °FBroken clouds.No wind64%30.12 "HgN/A
11:30 AM66 °FBroken clouds.No wind56%30.12 "HgN/A
11:00 AM66 °FPartly sunny.No wind52%30.12 "HgN/A
10:30 AM63 °FScattered clouds.No wind49%30.12 "HgN/A
10:00 AM61 °FScattered clouds.No wind52%30.12 "HgN/A
9:30 AM59 °FScattered clouds.No wind55%30.12 "HgN/A
9:00 AM57 °FBroken clouds.No wind72%30.12 "HgN/A
8:30 AM55 °FScattered clouds.No wind67%30.09 "HgN/A
8:00 AM52 °FBroken clouds.No wind82%30.09 "HgN/A
6:30 AM50 °FClear.No wind82%30.09 "Hg10 mi
Weather by CustomWeather, © 2014

See weather overviewHow to use our weather pages